Hutchinson, KS

5:44 PM CST on December 07, 2019 (GMT -0600)
Hutchinson Municipal

Weather History for KHUT - October, 2019

Change the Weather History Date:

Wednesday, October 23, 2019

  Actual Average Record
Temperature  
Mean Temperature 56 °F -  
Max Temperature 70 °F 65 °F 89 °F (2012)
Min Temperature 44 °F 41 °F 26 °F (2006)
Degree Days  
Heating Degree Days 8    
Growing Degree Days 6 (Base 50)    
Moisture  
Dew Point 33 °F    
Average Humidity 43    
Maximum Humidity 64    
Minimum Humidity 30    
Precipitation  
Precipitation 0.00 in - - ()
Sea Level Pressure  
Sea Level Pressure 29.93 in    
Wind  
Wind Speed 9 mph (West)    
Max Wind Speed 17 mph    
Max Gust Speed 25 mph    
Visibility 10 miles    
Events      
Averages and records for this station are not official NWS values.
T = Trace of Precipitation, MM = Missing Value Source: NWS Daily Summary

Daily Weather History Graph

Daily Weather History Graph

Search for Another Location

Airport or City:

Astronomy

Oct. 23, 2019 Rise Set
Actual Time 7:47 AM CDT 6:43 PM CDT
Civil Twilight 7:20 AM CDT 7:10 PM CDT
Nautical Twilight 6:50 AM CDT 7:40 PM CDT
Astronomical Twilight 6:19 AM CDT 8:11 PM CDT
Moon 2:14 AM CDT (10/23) 4:28 PM CDT (10/23)
Length of Visible Light 11h 49m
Length of Day
10h 55m
Waning Crescent, 26% of the Moon is Illuminated
Oct 23
Waning Crescent
Oct 27
New
Nov 4
First Quarter
Nov 12
Full
Nov 19
Last Quarter

Hourly Weather History & Observations

Time (CDT) Temp. Windchill Dew Point Humidity Pressure Visibility Wind Dir Wind Speed Gust Speed Precip Events Conditions
12:52 AM 55.9 °F - 28.9 °F 36% 29.86 in 10.0 mi South 13.8 mph - N/A   Clear
1:52 AM 55.0 °F - 28.0 °F 35% 29.87 in 10.0 mi SSW 8.1 mph - N/A   Clear
2:52 AM 52.0 °F - 28.9 °F 41% 29.86 in 10.0 mi South 8.1 mph - N/A   Clear
3:52 AM 50.0 °F - 28.0 °F 43% 29.86 in 10.0 mi SSW 6.9 mph - N/A   Clear
4:52 AM 46.9 °F - 28.9 °F 50% 29.85 in 10.0 mi South 6.9 mph - N/A   Clear
5:52 AM 46.0 °F 43.9 °F 28.0 °F 50% 29.85 in 10.0 mi SSE 4.6 mph - N/A   Clear
6:52 AM 44.1 °F 40.1 °F 28.9 °F 55% 29.86 in 10.0 mi South 6.9 mph - N/A   Clear
7:52 AM 44.1 °F 40.1 °F 30.0 °F 58% 29.86 in 10.0 mi SSE 6.9 mph - N/A   Clear
8:52 AM 50.0 °F - 30.9 °F 48% 29.89 in 10.0 mi WSW 5.8 mph - N/A   Clear
9:52 AM 55.0 °F - 32.0 °F 42% 29.90 in 10.0 mi SW 9.2 mph - N/A   Clear
10:52 AM 60.1 °F - 33.1 °F 36% 29.90 in 10.0 mi WSW 10.4 mph - N/A   Clear
11:52 AM 66.0 °F - 34.0 °F 30% 29.87 in 10.0 mi NW 17.3 mph 25.3 mph N/A   Clear
12:52 PM 68.0 °F - 36.0 °F 31% 29.89 in 10.0 mi NNW 12.7 mph - N/A   Clear
1:52 PM 69.1 °F - 39.0 °F 33% 29.88 in 10.0 mi North 13.8 mph 20.7 mph N/A   Clear
2:52 PM 66.0 °F - 37.0 °F 34% 29.89 in 10.0 mi NNW 16.1 mph 21.9 mph N/A   Clear
3:52 PM 66.0 °F - 36.0 °F 33% 29.91 in 10.0 mi North 13.8 mph 19.6 mph N/A   Clear
4:52 PM 64.9 °F - 34.0 °F 32% 29.94 in 10.0 mi North 9.2 mph - N/A   Clear
5:52 PM 63.0 °F - 34.0 °F 34% 29.95 in 10.0 mi North 8.1 mph - N/A   Clear
6:52 PM 57.9 °F - 35.1 °F 42% 29.99 in 10.0 mi NE 4.6 mph - N/A   Clear
7:52 PM 52.0 °F - 36.0 °F 54% 30.04 in 10.0 mi NNE 4.6 mph - N/A   Clear
8:52 PM 48.9 °F - 37.0 °F 64% 30.07 in 10.0 mi Calm Calm - N/A   Clear
9:52 PM 53.1 °F - 36.0 °F 52% 30.07 in 10.0 mi NE 4.6 mph - N/A   Mostly Cloudy
10:52 PM 51.1 °F - 37.9 °F 61% 30.10 in 10.0 mi Calm Calm - N/A   Clear
11:52 PM 54.0 °F - 35.1 °F 49% 30.12 in 10.0 mi North 13.8 mph 24.2 mph N/A   Clear